Regional Weather Roundup
Issued by NWS

Home | Current Version | Previous Version | Text Only | Print | Product List | Glossary Off
Versions: 1 2 3 4 5 6 7 8 9 10 11 12 13 14 15 16 17 18 19 20 21 22 23 24 25 26 27 28 29 30 31 32 33 34 35 36 37 38 39 40 41 42 43 44 45 46 47 48 49 50

000
ASUS45 KBOU 210007
RWRCO

WEATHER ROUNDUP FOR COLORADO
NATIONAL WEATHER SERVICE DENVER/BOULDER CO
500 PM MST THU NOV 20 2014

NOTE: "FAIR" INDICATES FEW OR NO CLOUDS BELOW 12000 FEET WITH NO
SIGNIFICANT WEATHER AND/OR OBSTRUCTIONS TO VISIBILITY.

COZ001>005-013-030-031-210100-
...NORTHWEST COLORADO...

CITY           SKY/WX    TMP DP  RH WIND       PRES   REMARKS
CRAIG          CLOUDY    35  20  54 E3        30.06S
HAYDEN         CLOUDY    36  18  48 CALM      30.07R
MEEKER         CLOUDY    40  19  43 W3        30.05R
MOUNT WERNER   NOT AVBL
STEAMBOAT SPGS CLOUDY    31  17  54 CALM      30.07R
WALDEN         CLOUDY    32  16  51 S9        30.05R WCI  24
$$

COZ006>008-011-210100-
...WEST CENTRAL VALLEYS...

CITY           SKY/WX    TMP DP  RH WIND       PRES   REMARKS
GRAND JUNCTION CLOUDY    41  22  46 NW3       30.08F
MONTROSE       PTCLDY    37  16  42 NW6       30.10R
EAGLE          MOCLDY    36  18  48 CALM      30.10R
RIFLE          CLOUDY    39  18  42 CALM      30.08R
DELTA          MOCLDY    42  15  32 E5        30.09S
NUCLA          CLOUDY    41  21  45 CALM      30.12S
$$

COZ017>023-064>068-210100-
...SOUTHWEST COLORADO...

CITY           SKY/WX    TMP DP  RH WIND       PRES   REMARKS
DURANGO        CLOUDY    43  17  35 E5        30.07R
CORTEZ         CLEAR     44  32  62 W3        30.06S
PAGOSA SPRINGS CLOUDY    38  15  38 CALM      30.10R
TELLURIDE      CLOUDY    29  23  78 E7        30.14R WCI  22
WOLF CREEK PAS CLOUDY    19  10  68 SW12      30.14S WCI   7
$$

COZ009-010-012-014-032>034-037-058>063-210100-
...CENTRAL COLORADO...

CITY           SKY/WX    TMP DP  RH WIND       PRES   REMARKS
ASPEN          PTCLDY    30  16  56 CALM      30.07R
BUENA VISTA    CLOUDY    39   8  27 SE5       30.03R
COPPER MTN     CLOUDY    27   0  31 W14       30.12S WCI  15
BERTHOUD PASS  LGT SNOW  14   9  79 N16G25    30.12S WCI  -2
COTTONWOOD PAS CLOUDY    37   3  23 W14       30.07R
GUNNISON       MOCLDY    28  14  54 N6        30.13S WCI  22
KREMMLING      CLOUDY    30  18  59 CALM      30.10S
LEADVILLE      CLOUDY    29   4  34 NW6       30.07R WCI  23
SALIDA         CLOUDY    44   2  17 S18       30.09S
SUNLIGHT       CLOUDY    27  19  74 CALM      30.13S
WILKERSON PASS CLOUDY    30   9  40 N6        30.12S WCI  24
$$

COZ069>075-210100-
...SAN LUIS VALLEY/SANGRE DE CRISTO MOUNTAINS...

CITY           SKY/WX    TMP DP  RH WIND       PRES   REMARKS
ALAMOSA        CLOUDY    39   7  26 NE3       30.05S
LA VETA PASS   CLOUDY    30   3  31 S13G20    30.07S WCI  20
SAGUACHE       MOCLDY    36  10  35 CALM      30.08R
$$

COZ035-036-038>040-210100-
...NORTHERN COLORADO FRONT RANGE...

CITY           SKY/WX    TMP DP  RH WIND       PRES   REMARKS
DENVER INTL AP CLOUDY    41  26  55 N7        29.95S
DMNS CITY PARK   N/A     44  24  46 NE3       29.96R
AURORA         MOCLDY    39  26  61 SW2       29.97R
FRONT RANGE AP NOT AVBL
ERIE MUNI ARPT CLOUDY    40  26  56 CALM      29.96S
BOULDER MUN AP CLOUDY    41  25  52 NW3       29.97R
CENTENNIAL     CLOUDY    42  24  49 N7        29.96R
BROOMFIELD     CLOUDY    45  23  42 N7        29.97S
FORT COLLINS   MOCLDY    39  25  56 CALM      29.98S
LONGMONT       CLOUDY    41  26  54 W6        29.99R
$$

COZ041-046-047-076>085-087-088-210100-
...PIKES PEAK/PALMER DIVIDE AND SOUTHERN FOOTHILLS...

CITY           SKY/WX    TMP DP  RH WIND       PRES   REMARKS
COLO. SPRINGS  MOCLDY    41  15  35 S8        30.00R
A. F. ACADEMY  MOCLDY    43   9  25 S8        29.99R
ELLICOTT       CLOUDY    34  18  52 SE5       29.99R WCI  30
FALCON         NOT AVBL
FORT CARSON    CLOUDY    42  22  45 SW5       29.98S
LIMON          MOCLDY    40  15  36 S9        29.99R
MONUMENT HILL  MOCLDY    36  10  35 S12       29.99R
TRINIDAD       PTCLDY    42  22  44 NW5       29.97R
$$

COZ042>045-048>051-090-091-210100-
...NORTHEAST COLORADO...

CITY           SKY/WX    TMP DP  RH WIND       PRES   REMARKS
GREELEY ARPT   MOCLDY    37  19  48 NW7       29.97S
AKRON          CLEAR     43  14  31 S10       29.96R
BURLINGTON     PTCLDY    40  14  34 SE10      30.00R
WRAY           CLEAR     42  17  36 E8        29.98S
STERLING       CLEAR     50  23  34 CALM      29.95R
HOLYOKE        CLEAR     37  19  48 SE9       29.98R
FORT MORGAN    CLEAR     45  14  28 E3        29.97R
$$

COZ086-089-092>099-210100-
...SOUTHEAST COLORADO...

CITY           SKY/WX    TMP DP  RH WIND       PRES   REMARKS
PUEBLO         MOCLDY    45  24  43 CALM      29.97R
LA JUNTA       PTCLDY    42  29  59 E6        29.96S
LAMAR          CLEAR     41  27  57 SE9       29.97R
SPRINGFIELD      N/A     36  26  67 E7        29.98F
$$



USA.gov is the U.S. government's official web portal to all federal, state and local government web resources and services.